Time,TemperatureF,DewpointF,PressureIn,WindDirection,WindDirectionDegrees,WindSpeedMPH,WindSpeedGustMPH,Humidity,HourlyPrecipIn,Conditions,Clouds,dailyrainin,SoftwareType,DateUTC
2013-03-28 00:02:00,37.0,31.0,30.24,NNE,14,0.0,2.0,78,0.00,,,0.00,,2013-03-28 05:02:00,
2013-03-28 00:12:00,37.0,31.0,30.24,NNE,14,0.0,2.0,78,0.00,,,0.00,,2013-03-28 05:12:00,
2013-03-28 00:22:00,37.0,31.0,30.24,NNE,14,0.0,1.0,79,0.00,,,0.00,,2013-03-28 05:22:00,
2013-03-28 00:32:00,36.0,30.0,30.24,NNE,14,0.0,2.0,79,0.00,,,0.00,,2013-03-28 05:32:00,
2013-03-28 00:42:00,36.0,30.0,30.24,NNE,14,0.0,2.0,79,0.00,,,0.00,,2013-03-28 05:42:00,
2013-03-28 00:52:00,36.0,30.0,30.24,NNE,14,0.0,2.0,80,0.00,,,0.00,,2013-03-28 05:52:00,
2013-03-28 01:02:00,36.0,31.0,30.24,NNE,14,0.0,0.0,81,0.00,,,0.00,,2013-03-28 06:02:00,
2013-03-28 01:12:00,36.0,31.0,30.24,NNE,14,0.0,0.0,81,0.00,,,0.00,,2013-03-28 06:12:00,
2013-03-28 01:22:00,36.0,31.0,30.24,NNE,14,2.0,3.0,82,0.00,,,0.00,,2013-03-28 06:22:00,
2013-03-28 01:32:00,36.0,31.0,30.24,North,6,1.0,3.0,81,0.00,,,0.00,,2013-03-28 06:32:00,
2013-03-28 01:42:00,36.0,31.0,30.24,North,6,1.0,3.0,81,0.00,,,0.00,,2013-03-28 06:42:00,
2013-03-28 01:52:00,35.0,29.0,30.24,North,4,2.0,3.0,79,0.00,,,0.00,,2013-03-28 06:52:00,
2013-03-28 02:02:00,34.0,29.0,30.24,North,4,0.0,2.0,82,0.00,,,0.00,,2013-03-28 07:02:00,
2013-03-28 02:12:00,34.0,29.0,30.24,North,4,0.0,2.0,82,0.00,,,0.00,,2013-03-28 07:12:00,
2013-03-28 02:22:00,35.0,30.0,30.24,North,3,5.0,6.0,83,0.00,,,0.00,,2013-03-28 07:22:00,
2013-03-28 02:32:00,35.0,30.0,30.24,North,4,6.0,6.0,82,0.00,,,0.00,,2013-03-28 07:32:00,
2013-03-28 02:42:00,35.0,30.0,30.24,North,4,6.0,6.0,82,0.00,,,0.00,,2013-03-28 07:42:00,
2013-03-28 02:52:00,35.0,29.0,30.24,North,4,4.0,7.0,79,0.00,,,0.00,,2013-03-28 07:52:00,
2013-03-28 03:02:00,35.0,29.0,30.24,North,3,0.0,4.0,77,0.00,,,0.00,,2013-03-28 08:02:00,
2013-03-28 03:12:00,35.0,29.0,30.24,North,3,0.0,4.0,77,0.00,,,0.00,,2013-03-28 08:12:00,
2013-03-28 03:21:00,35.0,29.0,30.24,North,4,1.0,2.0,77,0.00,,,0.00,,2013-03-28 08:21:00,
2013-03-28 03:32:00,35.0,28.0,30.24,North,4,0.0,2.0,76,0.00,,,0.00,,2013-03-28 08:32:00,
2013-03-28 03:42:00,35.0,28.0,30.24,North,4,0.0,2.0,76,0.00,,,0.00,,2013-03-28 08:42:00,
2013-03-28 03:52:00,35.0,28.0,30.24,North,4,1.0,2.0,76,0.00,,,0.00,,2013-03-28 08:52:00,
2013-03-28 04:02:00,34.0,28.0,30.24,North,3,2.0,3.0,78,0.00,,,0.00,,2013-03-28 09:02:00,
2013-03-28 04:12:00,34.0,28.0,30.24,North,3,2.0,3.0,78,0.00,,,0.00,,2013-03-28 09:12:00,
2013-03-28 04:22:00,35.0,29.0,30.24,North,1,2.0,5.0,77,0.00,,,0.00,,2013-03-28 09:22:00,
2013-03-28 04:32:00,35.0,28.0,30.25,North,1,4.0,6.0,76,0.00,,,0.00,,2013-03-28 09:32:00,
2013-03-28 04:42:00,34.0,27.0,30.25,North,1,1.0,3.0,76,0.00,,,0.00,,2013-03-28 09:42:00,
2013-03-28 04:52:00,34.0,27.0,30.25,North,1,1.0,3.0,76,0.00,,,0.00,,2013-03-28 09:52:00,
2013-03-28 05:02:00,35.0,28.0,30.26,North,1,2.0,6.0,75,0.00,,,0.00,,2013-03-28 10:02:00,
2013-03-28 05:12:00,35.0,28.0,30.26,North,1,2.0,6.0,75,0.00,,,0.00,,2013-03-28 10:12:00,
2013-03-28 05:22:00,36.0,29.0,30.25,North,360,4.0,6.0,74,0.00,,,0.00,,2013-03-28 10:22:00,
2013-03-28 05:32:00,36.0,28.0,30.26,North,360,0.0,3.0,73,0.00,,,0.00,,2013-03-28 10:32:00,
2013-03-28 05:42:00,36.0,28.0,30.26,North,360,0.0,3.0,73,0.00,,,0.00,,2013-03-28 10:42:00,
2013-03-28 05:53:00,36.0,28.0,30.27,North,360,0.0,0.0,73,0.00,,,0.00,,2013-03-28 10:53:00,
2013-03-28 06:02:00,36.0,29.0,30.27,North,360,0.0,0.0,74,0.00,,,0.00,,2013-03-28 11:02:00,
2013-03-28 06:12:00,36.0,29.0,30.27,North,360,0.0,0.0,74,0.00,,,0.00,,2013-03-28 11:12:00,
2013-03-28 06:22:00,36.0,29.0,30.27,North,360,0.0,0.0,74,0.00,,,0.00,,2013-03-28 11:22:00,
2013-03-28 06:32:00,36.0,29.0,30.27,North,360,0.0,0.0,75,0.00,,,0.00,,2013-03-28 11:32:00,
2013-03-28 06:42:00,36.0,29.0,30.27,North,360,0.0,0.0,75,0.00,,,0.00,,2013-03-28 11:42:00,
2013-03-28 06:52:00,36.0,29.0,30.28,North,360,0.0,0.0,74,0.00,,,0.00,,2013-03-28 11:52:00,
2013-03-28 07:02:00,35.0,28.0,30.29,North,360,0.0,1.0,75,0.00,,,0.00,,2013-03-28 12:02:00,
2013-03-28 07:12:00,35.0,28.0,30.29,North,360,0.0,1.0,75,0.00,,,0.00,,2013-03-28 12:12:00,
2013-03-28 07:22:00,35.0,28.0,30.29,North,360,0.0,3.0,75,0.00,,,0.00,,2013-03-28 12:22:00,
2013-03-28 07:32:00,36.0,29.0,30.29,North,360,0.0,2.0,76,0.00,,,0.00,,2013-03-28 12:32:00,
2013-03-28 07:42:00,36.0,29.0,30.29,North,360,0.0,2.0,76,0.00,,,0.00,,2013-03-28 12:42:00,
2013-03-28 07:52:00,36.0,30.0,30.29,North,360,0.0,2.0,78,0.00,,,0.00,,2013-03-28 12:52:00,
2013-03-28 08:02:00,37.0,30.0,30.29,North,360,0.0,0.0,75,0.00,,,0.00,,2013-03-28 13:02:00,
2013-03-28 08:12:00,37.0,30.0,30.29,North,360,0.0,0.0,75,0.00,,,0.00,,2013-03-28 13:12:00,
2013-03-28 08:22:00,39.0,29.0,30.30,North,360,0.0,0.0,68,0.00,,,0.00,,2013-03-28 13:22:00,
2013-03-28 08:32:00,41.0,30.0,30.30,North,360,0.0,0.0,65,0.00,,,0.00,,2013-03-28 13:32:00,
2013-03-28 08:41:00,41.0,30.0,30.30,North,360,0.0,0.0,65,0.00,,,0.00,,2013-03-28 13:41:00,
2013-03-28 08:52:00,43.0,30.0,30.30,North,360,0.0,1.0,60,0.00,,,0.00,,2013-03-28 13:52:00,
2013-03-28 09:02:00,45.0,31.0,30.31,ESE,104,1.0,3.0,58,0.00,,,0.00,,2013-03-28 14:02:00,
2013-03-28 09:12:00,45.0,31.0,30.31,ESE,104,1.0,3.0,58,0.00,,,0.00,,2013-03-28 14:12:00,
2013-03-28 09:22:00,47.0,29.0,30.31,ESE,120,2.0,5.0,50,0.00,,,0.00,,2013-03-28 14:22:00,
2013-03-28 09:32:00,49.0,29.0,30.31,SE,145,1.0,6.0,46,0.00,,,0.00,,2013-03-28 14:32:00,
2013-03-28 09:42:00,49.0,29.0,30.31,SE,145,1.0,6.0,46,0.00,,,0.00,,2013-03-28 14:42:00,
2013-03-28 09:52:00,50.0,28.0,30.31,ESE,121,0.0,5.0,42,0.00,,,0.00,,2013-03-28 14:52:00,
2013-03-28 10:02:00,51.0,29.0,30.31,ESE,112,0.0,2.0,43,0.00,,,0.00,,2013-03-28 15:02:00,
2013-03-28 10:12:00,51.0,29.0,30.31,ESE,112,0.0,2.0,43,0.00,,,0.00,,2013-03-28 15:12:00,
2013-03-28 10:21:00,52.0,30.0,30.32,ESE,123,0.0,4.0,42,0.00,,,0.00,,2013-03-28 15:21:00,
2013-03-28 10:32:00,52.0,30.0,30.32,ENE,58,4.0,7.0,42,0.00,,,0.00,,2013-03-28 15:32:00,
2013-03-28 10:43:00,52.0,30.0,30.32,ENE,58,4.0,7.0,42,0.00,,,0.00,,2013-03-28 15:43:00,
2013-03-28 10:53:00,53.0,29.0,30.32,ENE,59,1.0,8.0,40,0.00,,,0.00,,2013-03-28 15:53:00,
2013-03-28 11:02:00,54.0,28.0,30.32,NNE,30,3.0,7.0,37,0.00,,,0.00,,2013-03-28 16:02:00,
2013-03-28 11:12:00,54.0,28.0,30.32,NNE,30,3.0,7.0,37,0.00,,,0.00,,2013-03-28 16:12:00,
2013-03-28 11:23:00,53.0,27.0,30.32,North,360,4.0,8.0,37,0.00,,,0.00,,2013-03-28 16:23:00,
2013-03-28 11:32:00,54.0,24.0,30.32,NNE,17,5.0,8.0,31,0.00,,,0.00,,2013-03-28 16:32:00,
2013-03-28 11:42:00,54.0,24.0,30.32,NNE,17,5.0,8.0,31,0.00,,,0.00,,2013-03-28 16:42:00,
2013-03-28 11:52:00,56.0,24.0,30.32,NE,55,1.0,10.0,29,0.00,,,0.00,,2013-03-28 16:52:00,
2013-03-28 12:02:00,57.0,28.0,30.32,North,356,4.0,7.0,33,0.00,,,0.00,,2013-03-28 17:02:00,
2013-03-28 12:12:00,57.0,28.0,30.32,North,356,4.0,7.0,33,0.00,,,0.00,,2013-03-28 17:12:00,
2013-03-28 12:22:00,55.0,26.0,30.31,NNW,332,5.0,12.0,33,0.00,,,0.00,,2013-03-28 17:22:00,
2013-03-28 12:32:00,57.0,27.0,30.31,North,353,3.0,8.0,31,0.00,,,0.00,,2013-03-28 17:32:00,
2013-03-28 12:42:00,57.0,27.0,30.31,North,353,3.0,8.0,31,0.00,,,0.00,,2013-03-28 17:42:00,
2013-03-28 12:52:00,59.0,31.0,30.30,NE,45,7.0,11.0,35,0.00,,,0.00,,2013-03-28 17:52:00,
2013-03-28 13:02:00,60.0,30.0,30.30,NNW,333,8.0,13.0,32,0.00,,,0.00,,2013-03-28 18:02:00,
2013-03-28 13:12:00,60.0,30.0,30.30,NNW,333,8.0,13.0,32,0.00,,,0.00,,2013-03-28 18:12:00,
2013-03-28 13:22:00,57.0,32.0,30.29,NW,325,5.0,11.0,38,0.00,,,0.00,,2013-03-28 18:22:00,
2013-03-28 13:32:00,58.0,31.0,30.29,NW,306,3.0,11.0,36,0.00,,,0.00,,2013-03-28 18:32:00,
2013-03-28 13:42:00,58.0,31.0,30.29,NW,306,3.0,11.0,36,0.00,,,0.00,,2013-03-28 18:42:00,
2013-03-28 13:52:00,57.0,29.0,30.28,South,189,2.0,10.0,34,0.00,,,0.00,,2013-03-28 18:52:00,
2013-03-28 14:02:00,60.0,31.0,30.27,NNE,28,3.0,7.0,33,0.00,,,0.00,,2013-03-28 19:02:00,
2013-03-28 14:12:00,60.0,31.0,30.27,NNE,28,3.0,7.0,33,0.00,,,0.00,,2013-03-28 19:12:00,
2013-03-28 14:22:00,61.0,32.0,30.27,NNE,27,5.0,12.0,33,0.00,,,0.00,,2013-03-28 19:22:00,
2013-03-28 14:32:00,60.0,31.0,30.26,NW,311,7.0,11.0,33,0.00,,,0.00,,2013-03-28 19:32:00,
2013-03-28 14:42:00,60.0,31.0,30.26,NW,311,7.0,11.0,33,0.00,,,0.00,,2013-03-28 19:42:00,
2013-03-28 14:52:00,59.0,31.0,30.25,North,359,3.0,8.0,35,0.00,,,0.00,,2013-03-28 19:52:00,
2013-03-28 15:03:00,60.0,31.0,30.24,NNE,25,4.0,17.0,33,0.00,,,0.00,,2013-03-28 20:03:00,
2013-03-28 15:12:00,62.0,30.0,30.24,North,350,2.0,9.0,30,0.00,,,0.00,,2013-03-28 20:12:00,
2013-03-28 15:22:00,62.0,30.0,30.24,North,350,2.0,9.0,30,0.00,,,0.00,,2013-03-28 20:22:00,
2013-03-28 15:32:00,62.0,31.0,30.23,SSE,164,2.0,6.0,31,0.00,,,0.00,,2013-03-28 20:32:00,
2013-03-28 15:42:00,62.0,31.0,30.23,SSE,164,2.0,6.0,31,0.00,,,0.00,,2013-03-28 20:42:00,
2013-03-28 15:53:00,60.0,29.0,30.22,NNW,335,1.0,13.0,31,0.00,,,0.00,,2013-03-28 20:53:00,
2013-03-28 16:02:00,61.0,29.0,30.22,North,360,7.0,12.0,29,0.00,,,0.00,,2013-03-28 21:02:00,
2013-03-28 16:12:00,61.0,29.0,30.22,North,360,7.0,12.0,29,0.00,,,0.00,,2013-03-28 21:12:00,
2013-03-28 16:22:00,61.0,31.0,30.22,NW,319,9.0,12.0,32,0.00,,,0.00,,2013-03-28 21:22:00,
2013-03-28 16:32:00,60.0,29.0,30.22,NNW,329,3.0,12.0,31,0.00,,,0.00,,2013-03-28 21:32:00,
2013-03-28 16:43:00,60.0,29.0,30.22,NNW,329,3.0,12.0,31,0.00,,,0.00,,2013-03-28 21:43:00,
2013-03-28 16:53:00,62.0,32.0,30.22,North,360,1.0,7.0,32,0.00,,,0.00,,2013-03-28 21:53:00,
2013-03-28 17:02:00,63.0,31.0,30.21,NW,313,2.0,7.0,30,0.00,,,0.00,,2013-03-28 22:02:00,
2013-03-28 17:12:00,63.0,31.0,30.21,NW,313,2.0,7.0,30,0.00,,,0.00,,2013-03-28 22:12:00,
2013-03-28 17:22:00,61.0,31.0,30.21,NW,315,6.0,11.0,32,0.00,,,0.00,,2013-03-28 22:22:00,
2013-03-28 17:32:00,61.0,29.0,30.21,NNW,347,8.0,11.0,29,0.00,,,0.00,,2013-03-28 22:32:00,
2013-03-28 17:42:00,61.0,29.0,30.21,NNW,347,8.0,11.0,29,0.00,,,0.00,,2013-03-28 22:42:00,
2013-03-28 17:52:00,61.0,29.0,30.21,NNE,25,9.0,12.0,29,0.00,,,0.00,,2013-03-28 22:52:00,
2013-03-28 18:02:00,61.0,31.0,30.21,NNE,20,3.0,6.0,32,0.00,,,0.00,,2013-03-28 23:02:00,
2013-03-28 18:12:00,61.0,31.0,30.21,NNE,20,3.0,6.0,32,0.00,,,0.00,,2013-03-28 23:12:00,
2013-03-28 18:22:00,61.0,30.0,30.21,North,349,0.0,5.0,31,0.00,,,0.00,,2013-03-28 23:22:00,
2013-03-28 18:32:00,60.0,29.0,30.21,NNE,24,2.0,6.0,31,0.00,,,0.00,,2013-03-28 23:32:00,
2013-03-28 18:42:00,60.0,29.0,30.21,NNE,24,2.0,6.0,31,0.00,,,0.00,,2013-03-28 23:42:00,
2013-03-28 18:52:00,60.0,28.0,30.21,NNW,337,2.0,3.0,30,0.00,,,0.00,,2013-03-28 23:52:00,
2013-03-28 19:02:00,59.0,29.0,30.21,NNW,337,1.0,2.0,32,0.00,,,0.00,,2013-03-29 00:02:00,
2013-03-28 19:12:00,59.0,29.0,30.21,NNW,337,1.0,2.0,32,0.00,,,0.00,,2013-03-29 00:12:00,
2013-03-28 19:22:00,59.0,31.0,30.22,NNW,337,0.0,0.0,34,0.00,,,0.00,,2013-03-29 00:22:00,
2013-03-28 19:32:00,57.0,31.0,30.22,NNW,337,0.0,0.0,37,0.00,,,0.00,,2013-03-29 00:32:00,
2013-03-28 19:42:00,57.0,31.0,30.22,NNW,337,0.0,0.0,37,0.00,,,0.00,,2013-03-29 00:42:00,
2013-03-28 19:52:00,55.0,32.0,30.22,NNW,329,0.0,2.0,42,0.00,,,0.00,,2013-03-29 00:52:00,
2013-03-28 20:02:00,54.0,35.0,30.22,NNW,329,0.0,0.0,48,0.00,,,0.00,,2013-03-29 01:02:00,
2013-03-28 20:12:00,54.0,35.0,30.22,NNW,329,0.0,0.0,48,0.00,,,0.00,,2013-03-29 01:12:00,
2013-03-28 20:22:00,53.0,35.0,30.23,NNW,329,0.0,0.0,50,0.00,,,0.00,,2013-03-29 01:22:00,
2013-03-28 20:32:00,52.0,35.0,30.23,NNW,330,0.0,0.0,52,0.00,,,0.00,,2013-03-29 01:32:00,
2013-03-28 20:42:00,52.0,35.0,30.23,NNW,330,0.0,0.0,52,0.00,,,0.00,,2013-03-29 01:42:00,
2013-03-28 20:52:00,51.0,34.0,30.24,NNW,330,0.0,1.0,52,0.00,,,0.00,,2013-03-29 01:52:00,
2013-03-28 21:02:00,50.0,34.0,30.24,NNW,330,0.0,0.0,55,0.00,,,0.00,,2013-03-29 02:02:00,
2013-03-28 21:12:00,50.0,34.0,30.24,NNW,330,0.0,0.0,55,0.00,,,0.00,,2013-03-29 02:12:00,
2013-03-28 21:22:00,49.0,34.0,30.24,NNW,329,0.0,0.0,56,0.00,,,0.00,,2013-03-29 02:22:00,
2013-03-28 21:32:00,49.0,34.0,30.24,NNW,330,0.0,0.0,57,0.00,,,0.00,,2013-03-29 02:32:00,
2013-03-28 21:42:00,49.0,34.0,30.24,NNW,330,0.0,0.0,57,0.00,,,0.00,,2013-03-29 02:42:00,
2013-03-28 21:53:00,48.0,34.0,30.24,NNW,329,1.0,2.0,58,0.00,,,0.00,,2013-03-29 02:53:00,
2013-03-28 22:02:00,48.0,35.0,30.24,NNW,330,0.0,2.0,60,0.00,,,0.00,,2013-03-29 03:02:00,
2013-03-28 22:12:00,48.0,35.0,30.24,NNW,330,0.0,2.0,60,0.00,,,0.00,,2013-03-29 03:12:00,
2013-03-28 22:22:00,47.0,35.0,30.25,NNW,329,0.0,0.0,64,0.00,,,0.00,,2013-03-29 03:22:00,
2013-03-28 22:32:00,46.0,35.0,30.25,NNW,330,0.0,0.0,65,0.00,,,0.00,,2013-03-29 03:32:00,
2013-03-28 22:42:00,46.0,35.0,30.25,NNW,330,0.0,0.0,65,0.00,,,0.00,,2013-03-29 03:42:00,
2013-03-28 22:53:00,45.0,35.0,30.24,NNW,329,0.0,0.0,68,0.00,,,0.00,,2013-03-29 03:53:00,
2013-03-28 23:03:00,45.0,35.0,30.25,NNW,330,0.0,0.0,68,0.00,,,0.00,,2013-03-29 04:03:00,
2013-03-28 23:12:00,45.0,35.0,30.25,NNW,330,0.0,0.0,68,0.00,,,0.00,,2013-03-29 04:12:00,
2013-03-28 23:22:00,45.0,35.0,30.25,NNW,329,0.0,0.0,69,0.00,,,0.00,,2013-03-29 04:22:00,
2013-03-28 23:33:00,44.0,35.0,30.24,NNW,330,0.0,0.0,71,0.00,,,0.00,,2013-03-29 04:33:00,
2013-03-28 23:43:00,44.0,35.0,30.24,NNW,330,0.0,0.0,71,0.00,,,0.00,,2013-03-29 04:43:00,
2013-03-28 23:52:00,43.0,35.0,30.24,NNW,329,0.0,0.0,72,0.00,,,0.00,,2013-03-29 04:52:00,